| time (UTC) | temp F | wind direction | speed MPH | gust MPH | rain 1hr in | rain 24hr in | rain mn in | humidity % | barometer mb |
| 20260508140823 | 55 | 244 | 5.0 | 14.0 | 0.00 | 0.00 | 0.00 | 57 | 1013.4 |
| 20260508140320 | 56 | 315 | 3.0 | 5.0 | 0.00 | 0.00 | 0.00 | 56 | 1013.7 |
| 20260508135816 | 55 | 283 | 6.0 | 12.0 | 0.00 | 0.00 | 0.00 | 57 | 1013.8 |
| 20260508135312 | 55 | 10 | 5.0 | 8.0 | 0.00 | 0.00 | 0.00 | 55 | 1013.7 |
| 20260508134808 | 54 | 208 | 2.0 | 8.0 | 0.00 | 0.00 | 0.00 | 58 | 1013.7 |
| 20260508134305 | 53 | 298 | 4.0 | 7.0 | 0.00 | 0.00 | 0.00 | 57 | 1013.9 |
| 20260508133802 | 53 | 274 | 4.0 | 8.0 | 0.00 | 0.00 | 0.00 | 59 | 1013.9 |
| 20260508133300 | 53 | 300 | 5.0 | 8.0 | 0.00 | 0.00 | 0.00 | 58 | 1014.0 |
| 20260508132757 | 53 | 200 | 3.0 | 10.0 | 0.00 | 0.00 | 0.00 | 61 | 1013.9 |
| 20260508132254 | 52 | 297 | 2.0 | 10.0 | 0.00 | 0.00 | 0.00 | 59 | 1013.9 |
| 20260508131750 | 52 | 205 | 9.0 | 11.0 | 0.00 | 0.00 | 0.00 | 59 | 1014.1 |
| 20260508131246 | 52 | 279 | 8.0 | 15.0 | 0.00 | 0.00 | 0.00 | 57 | 1013.9 |
| 20260508130743 | 52 | 222 | 3.0 | 8.0 | 0.00 | 0.00 | 0.00 | 59 | 1013.8 |
| 20260508130241 | 53 | 290 | 10.0 | 12.0 | 0.00 | 0.00 | 0.00 | 58 | 1013.8 |
| 20260508125736 | 52 | 204 | 3.0 | 8.0 | 0.00 | 0.00 | 0.00 | 61 | 1013.8 |
| 20260508125232 | 51 | 276 | 2.0 | 4.0 | 0.00 | 0.00 | 0.00 | 63 | 1014.0 |
| 20260508124731 | 51 | 258 | 2.0 | 7.0 | 0.00 | 0.00 | 0.00 | 64 | 1013.9 |
| 20260508124227 | 51 | 202 | 1.0 | 4.0 | 0.00 | 0.00 | 0.00 | 65 | 1014.0 |
| 20260508123726 | 52 | 276 | 3.0 | 5.0 | 0.00 | 0.00 | 0.00 | 64 | 1014.0 |
| 20260508123224 | 52 | 208 | 6.0 | 8.0 | 0.00 | 0.00 | 0.00 | 62 | 1013.8 |
| 20260508122719 | 52 | 249 | 5.0 | 12.0 | 0.00 | 0.00 | 0.00 | 63 | 1013.8 |
| 20260508122216 | 51 | 279 | 5.0 | 8.0 | 0.00 | 0.00 | 0.00 | 64 | 1013.4 |
| 20260508121714 | 51 | 293 | 8.0 | 10.0 | 0.00 | 0.00 | 0.00 | 65 | 1013.4 |
| 20260508121213 | 51 | 219 | 4.0 | 5.0 | 0.00 | 0.00 | 0.00 | 68 | 1013.4 |
| 20260508120709 | 50 | 221 | 4.0 | 5.0 | 0.00 | 0.00 | 0.00 | 68 | 1013.5 |
| 20260508120208 | 50 | 259 | 2.0 | 4.0 | 0.00 | 0.00 | 0.00 | 70 | 1013.5 |
| 20260508115705 | 50 | 233 | 1.0 | 7.0 | 0.00 | 0.00 | 0.00 | 69 | 1013.4 |
| 20260508115202 | 49 | 122 | 1.0 | 3.0 | 0.00 | 0.00 | 0.00 | 71 | 1013.3 |
| 20260508114658 | 49 | 260 | 1.0 | 4.0 | 0.00 | 0.00 | 0.00 | 72 | 1013.4 |
| 20260508114155 | 48 | 233 | 3.0 | 5.0 | 0.00 | 0.00 | 0.00 | 73 | 1013.2 |
| 20260508113652 | 48 | 231 | 1.0 | 3.0 | 0.00 | 0.00 | 0.00 | 77 | 1013.4 |
| 20260508113150 | 48 | 244 | 1.0 | 3.0 | 0.00 | 0.00 | 0.00 | 75 | 1013.2 |
| 20260508112646 | 47 | 254 | 1.0 | 1.0 | 0.00 | 0.00 | 0.00 | 76 | 1013.2 |
| 20260508112143 | 47 | 269 | 0.0 | 1.0 | 0.00 | 0.00 | 0.00 | 76 | 1013.2 |
| 20260508111639 | 47 | 268 | 5.0 | 7.0 | 0.00 | 0.00 | 0.00 | 75 | 1013.4 |
| 20260508111137 | 47 | 107 | 1.0 | 1.0 | 0.00 | 0.00 | 0.00 | 77 | 1013.3 |
| 20260508110635 | 47 | 162 | 1.0 | 3.0 | 0.00 | 0.00 | 0.00 | 76 | 1013.3 |
| 20260508110131 | 48 | 265 | 5.0 | 12.0 | 0.00 | 0.00 | 0.00 | 73 | 1013.8 |
| 20260508105626 | 48 | 233 | 5.0 | 11.0 | 0.00 | 0.00 | 0.00 | 73 | 1013.8 |
| 20260508105123 | 48 | 273 | 4.0 | 5.0 | 0.00 | 0.00 | 0.00 | 70 | 1013.7 |
| 20260508104621 | 48 | 308 | 1.0 | 3.0 | 0.00 | 0.00 | 0.00 | 70 | 1013.3 |
| 20260508104117 | 47 | 269 | 3.0 | 4.0 | 0.00 | 0.00 | 0.00 | 70 | 1013.2 |
| 20260508103614 | 47 | 231 | 2.0 | 3.0 | 0.00 | 0.00 | 0.00 | 71 | 1013.2 |
| 20260508103111 | 47 | 274 | 4.0 | 7.0 | 0.00 | 0.00 | 0.00 | 70 | 1013.2 |
| 20260508102609 | 47 | 234 | 2.0 | 8.0 | 0.00 | 0.00 | 0.00 | 70 | 1013.0 |
| 20260508102106 | 46 | 285 | 4.0 | 7.0 | 0.00 | 0.00 | 0.00 | 71 | 1013.2 |
| 20260508101604 | 46 | 174 | 3.0 | 4.0 | 0.00 | 0.00 | 0.00 | 73 | 1013.0 |
| 20260508101101 | 46 | 227 | 1.0 | 3.0 | 0.00 | 0.00 | 0.00 | 73 | 1013.3 |
| 20260508100559 | 46 | 221 | 0.0 | 1.0 | 0.00 | 0.00 | 0.00 | 73 | 1013.1 |
| 20260508100055 | 46 | 262 | 0.0 | 1.0 | 0.00 | 0.00 | 0.00 | 72 | 1013.1 |
| 20260508095552 | 46 | 265 | 1.0 | 3.0 | 0.00 | 0.00 | 0.00 | 72 | 1013.0 |
| 20260508095049 | 46 | 239 | 1.0 | 3.0 | 0.00 | 0.00 | 0.00 | 72 | 1013.1 |
| 20260508094547 | 46 | 222 | 3.0 | 4.0 | 0.00 | 0.00 | 0.00 | 72 | 1013.4 |
| 20260508094043 | 46 | 279 | 0.0 | 7.0 | 0.00 | 0.00 | 0.00 | 72 | 1013.3 |
| 20260508093540 | 45 | 246 | 3.0 | 7.0 | 0.00 | 0.00 | 0.00 | 72 | 1013.4 |
| 20260508093038 | 45 | 242 | 1.0 | 3.0 | 0.00 | 0.00 | 0.00 | 73 | 1013.1 |
| 20260508092535 | 46 | 255 | 1.0 | 4.0 | 0.00 | 0.00 | 0.00 | 73 | 1013.2 |
| 20260508092034 | 46 | 219 | 0.0 | 1.0 | 0.00 | 0.00 | 0.00 | 74 | 1013.3 |
| 20260508091531 | 46 | 255 | 3.0 | 4.0 | 0.00 | 0.00 | 0.00 | 73 | 1013.3 |
| 20260508091028 | 46 | 254 | 5.0 | 5.0 | 0.00 | 0.00 | 0.00 | 73 | 1013.2 |
| 20260508090526 | 46 | 219 | 1.0 | 1.0 | 0.00 | 0.00 | 0.00 | 73 | 1013.5 |
| 20260508090022 | 46 | 244 | 2.0 | 5.0 | 0.00 | 0.00 | 0.00 | 72 | 1013.2 |
| 20260508085519 | 46 | 251 | 1.0 | 1.0 | 0.00 | 0.00 | 0.00 | 72 | 1013.4 |
| 20260508085016 | 46 | 261 | 3.0 | 5.0 | 0.00 | 0.00 | 0.00 | 72 | 1013.4 |
| 20260508084513 | 46 | 231 | 2.0 | 5.0 | 0.00 | 0.00 | 0.00 | 72 | 1013.4 |
| 20260508084010 | 46 | 211 | 2.0 | 3.0 | 0.00 | 0.00 | 0.00 | 71 | 1013.4 |
| 20260508083507 | 47 | 209 | 2.0 | 3.0 | 0.00 | 0.00 | 0.00 | 71 | 1013.4 |
| 20260508083003 | 47 | 223 | 5.0 | 5.0 | 0.00 | 0.00 | 0.00 | 71 | 1013.5 |
| 20260508082459 | 47 | 223 | 3.0 | 4.0 | 0.00 | 0.00 | 0.00 | 71 | 1013.5 |
| 20260508081957 | 47 | 267 | 2.0 | 3.0 | 0.00 | 0.00 | 0.00 | 71 | 1013.5 |
| 20260508081454 | 47 | 237 | 0.0 | 3.0 | 0.00 | 0.00 | 0.00 | 70 | 1013.5 |
| 20260508080950 | 47 | 221 | 1.0 | 3.0 | 0.00 | 0.00 | 0.00 | 70 | 1013.7 |
| 20260508080448 | 47 | 264 | 2.0 | 3.0 | 0.00 | 0.00 | 0.00 | 70 | 1013.7 |
| 20260508075945 | 47 | 280 | 2.0 | 7.0 | 0.00 | 0.00 | 0.00 | 70 | 1013.5 |
| 20260508075442 | 47 | 232 | 2.0 | 4.0 | 0.00 | 0.00 | 0.00 | 71 | 1013.5 |
| 20260508074939 | 47 | 227 | 4.0 | 5.0 | 0.00 | 0.00 | 0.00 | 71 | 1013.5 |
| 20260508074437 | 48 | 220 | 2.0 | 8.0 | 0.00 | 0.00 | 0.00 | 70 | 1013.5 |
| 20260508073934 | 48 | 212 | 5.0 | 10.0 | 0.00 | 0.00 | 0.00 | 68 | 1013.7 |
| 20260508073431 | 49 | 280 | 5.0 | 12.0 | 0.00 | 0.00 | 0.00 | 66 | 1013.7 |
| 20260508072928 | 49 | 154 | 8.0 | 21.0 | 0.00 | 0.00 | 0.00 | 62 | 1013.7 |
| 20260508072424 | 49 | 255 | 4.0 | 10.0 | 0.00 | 0.00 | 0.00 | 61 | 1013.9 |
| 20260508071921 | 48 | 239 | 7.0 | 10.0 | 0.00 | 0.00 | 0.00 | 61 | 1013.9 |
| 20260508071419 | 48 | 231 | 2.0 | 4.0 | 0.00 | 0.00 | 0.00 | 62 | 1013.8 |
| 20260508070917 | 47 | 237 | 2.0 | 7.0 | 0.00 | 0.00 | 0.00 | 64 | 1013.9 |
| 20260508070415 | 47 | 261 | 3.0 | 4.0 | 0.00 | 0.00 | 0.00 | 64 | 1013.8 |
| 20260508065912 | 47 | 271 | 2.0 | 5.0 | 0.00 | 0.00 | 0.00 | 65 | 1013.7 |
| 20260508065410 | 47 | 227 | 2.0 | 3.0 | 0.00 | 0.00 | 0.00 | 64 | 1013.7 |
| 20260508064908 | 47 | 230 | 1.0 | 1.0 | 0.00 | 0.00 | 0.00 | 64 | 1013.8 |
| 20260508064405 | 46 | 185 | 1.0 | 1.0 | 0.00 | 0.00 | 0.00 | 64 | 1013.5 |
| 20260508063903 | 46 | 186 | 0.0 | 1.0 | 0.00 | 0.00 | 0.00 | 64 | 1013.8 |
| 20260508063400 | 46 | 182 | 3.0 | 3.0 | 0.00 | 0.00 | 0.00 | 64 | 1013.5 |
| 20260508062857 | 46 | 232 | 1.0 | 1.0 | 0.00 | 0.00 | 0.00 | 65 | 1013.7 |
| 20260508062355 | 46 | 235 | 0.0 | 3.0 | 0.00 | 0.00 | 0.00 | 66 | 1014.0 |
| 20260508061852 | 46 | 235 | 1.0 | 3.0 | 0.00 | 0.00 | 0.00 | 66 | 1013.8 |
| 20260508061349 | 46 | 223 | 0.0 | 1.0 | 0.00 | 0.00 | 0.00 | 64 | 1013.8 |
| 20260508060845 | 46 | 222 | 1.0 | 1.0 | 0.00 | 0.00 | 0.00 | 64 | 1013.8 |
| 20260508060343 | 47 | 222 | 1.0 | 3.0 | 0.00 | 0.00 | 0.00 | 64 | 1013.8 |
| 20260508055838 | 47 | 225 | 1.0 | 1.0 | 0.00 | 0.00 | 0.00 | 62 | 1013.8 |
| 20260508055336 | 47 | 226 | 1.0 | 1.0 | 0.00 | 0.00 | 0.00 | 62 | 1013.8 |
| 20260508054832 | 47 | 235 | 1.0 | 1.0 | 0.00 | 0.00 | 0.00 | 63 | 1013.9 |
| 20260508054330 | 47 | 234 | 1.0 | 3.0 | 0.00 | 0.00 | 0.00 | 62 | 1014.0 |
| 20260508053826 | 47 | 220 | 1.0 | 1.0 | 0.00 | 0.00 | 0.00 | 62 | 1014.1 |
| 20260508053324 | 47 | 221 | 1.0 | 3.0 | 0.00 | 0.00 | 0.00 | 60 | 1014.2 |
| 20260508052821 | 47 | 214 | 0.0 | 1.0 | 0.00 | 0.00 | 0.00 | 62 | 1014.1 |
| 20260508052318 | 47 | 213 | 0.0 | 0.0 | 0.00 | 0.00 | 0.00 | 61 | 1014.2 |
| 20260508051815 | 47 | 213 | 0.0 | 0.0 | 0.00 | 0.00 | 0.00 | 62 | 1014.3 |
| 20260508051310 | 47 | 213 | 1.0 | 3.0 | 0.00 | 0.00 | 0.00 | 61 | 1014.4 |
| 20260508050807 | 47 | 218 | 1.0 | 1.0 | 0.00 | 0.00 | 0.00 | 61 | 1014.4 |
| 20260508050304 | 47 | 201 | 0.0 | 0.0 | 0.00 | 0.00 | 0.00 | 61 | 1014.3 |
| 20260508045759 | 47 | 274 | 0.0 | 1.0 | 0.00 | 0.00 | 0.00 | 62 | 1014.4 |
| 20260508045257 | 47 | 281 | 0.0 | 1.0 | 0.00 | 0.00 | 0.00 | 63 | 1014.3 |
| 20260508044755 | 47 | 219 | 3.0 | 4.0 | 0.00 | 0.00 | 0.00 | 62 | 1014.4 |
| 20260508044251 | 47 | 253 | 1.0 | 4.0 | 0.00 | 0.00 | 0.00 | 63 | 1014.4 |
| 20260508043747 | 47 | 261 | 0.0 | 1.0 | 0.00 | 0.00 | 0.00 | 63 | 1014.3 |
| 20260508043245 | 47 | 270 | 1.0 | 3.0 | 0.00 | 0.00 | 0.00 | 62 | 1014.2 |
| 20260508042741 | 47 | 219 | 3.0 | 5.0 | 0.00 | 0.00 | 0.00 | 62 | 1014.4 |
| 20260508042239 | 46 | 316 | 0.0 | 4.0 | 0.00 | 0.00 | 0.00 | 64 | 1014.4 |
| 20260508041735 | 46 | 291 | 1.0 | 3.0 | 0.00 | 0.00 | 0.00 | 64 | 1014.4 |
| 20260508041232 | 45 | 285 | 4.0 | 10.0 | 0.00 | 0.00 | 0.00 | 66 | 1014.2 |
| 20260508040728 | 43 | 224 | 3.0 | 5.0 | 0.00 | 0.00 | 0.00 | 72 | 1014.4 |
| 20260508040226 | 42 | 307 | 1.0 | 1.0 | 0.00 | 0.00 | 0.00 | 78 | 1014.2 |
| 20260508035723 | 41 | 308 | 1.0 | 1.0 | 0.00 | 0.00 | 0.00 | 80 | 1014.3 |
| 20260508035221 | 41 | 308 | 0.0 | 0.0 | 0.00 | 0.00 | 0.00 | 79 | 1014.4 |
| 20260508034717 | 41 | 308 | 0.0 | 0.0 | 0.00 | 0.00 | 0.00 | 77 | 1014.3 |
| 20260508034215 | 41 | 308 | 0.0 | 0.0 | 0.00 | 0.00 | 0.00 | 77 | 1014.3 |
| 20260508033711 | 40 | 307 | 2.0 | 1.0 | 0.00 | 0.00 | 0.00 | 79 | 1014.4 |
| 20260508033210 | 40 | 309 | 1.0 | 1.0 | 0.00 | 0.00 | 0.00 | 83 | 1014.2 |
| 20260508032707 | 40 | 309 | 0.0 | 0.0 | 0.00 | 0.00 | 0.00 | 82 | 1014.3 |
| 20260508032204 | 40 | 310 | 0.0 | 0.0 | 0.00 | 0.00 | 0.00 | 83 | 1014.2 |
| 20260508031701 | 40 | 310 | 0.0 | 0.0 | 0.00 | 0.00 | 0.00 | 83 | 1014.2 |
| 20260508031156 | 40 | 310 | 0.0 | 0.0 | 0.00 | 0.00 | 0.00 | 82 | 1014.2 |
| 20260508030653 | 40 | 310 | 0.0 | 0.0 | 0.00 | 0.00 | 0.00 | 80 | 1014.2 |
| 20260508030151 | 40 | 309 | 0.0 | 0.0 | 0.00 | 0.00 | 0.00 | 79 | 1014.1 |
| 20260508025647 | 40 | 309 | 0.0 | 0.0 | 0.00 | 0.00 | 0.00 | 76 | 1014.3 |
| 20260508025144 | 40 | 310 | 0.0 | 0.0 | 0.00 | 0.00 | 0.00 | 75 | 1014.2 |
| 20260508024640 | 41 | 309 | 0.0 | 0.0 | 0.00 | 0.00 | 0.00 | 74 | 1014.2 |
| 20260508024137 | 41 | 309 | 0.0 | 0.0 | 0.00 | 0.00 | 0.00 | 73 | 1014.3 |
| 20260508023633 | 42 | 309 | 0.0 | 0.0 | 0.00 | 0.00 | 0.00 | 73 | 1014.3 |
| 20260508023132 | 42 | 309 | 0.0 | 0.0 | 0.00 | 0.00 | 0.00 | 73 | 1014.2 |
| 20260508022627 | 41 | 309 | 0.0 | 1.0 | 0.00 | 0.00 | 0.00 | 74 | 1014.3 |
| 20260508022124 | 41 | 310 | 0.0 | 0.0 | 0.00 | 0.00 | 0.00 | 72 | 1014.2 |
| 20260508021620 | 41 | 309 | 0.0 | 0.0 | 0.00 | 0.00 | 0.00 | 72 | 1014.1 |
| 20260508021116 | 42 | 309 | 0.0 | 0.0 | 0.00 | 0.00 | 0.00 | 71 | 1014.3 |
| 20260508020614 | 42 | 310 | 0.0 | 0.0 | 0.00 | 0.00 | 0.00 | 73 | 1014.2 |
| 20260508020111 | 43 | 310 | 0.0 | 0.0 | 0.00 | 0.00 | 0.00 | 70 | 1014.2 |
| 20260508015609 | 43 | 310 | 0.0 | 0.0 | 0.00 | 0.00 | 0.00 | 66 | 1014.2 |
| 20260508015105 | 43 | 310 | 0.0 | 0.0 | 0.00 | 0.00 | 0.00 | 65 | 1014.0 |
| 20260508014601 | 43 | 309 | 0.0 | 0.0 | 0.00 | 0.00 | 0.00 | 63 | 1014.0 |
| 20260508014058 | 44 | 309 | 0.0 | 0.0 | 0.00 | 0.00 | 0.00 | 63 | 1014.1 |
| 20260508013554 | 45 | 310 | 0.0 | 0.0 | 0.00 | 0.00 | 0.00 | 63 | 1014.1 |
| 20260508013051 | 45 | 310 | 0.0 | 0.0 | 0.00 | 0.00 | 0.00 | 58 | 1014.2 |
| 20260508012548 | 45 | 309 | 0.0 | 0.0 | 0.00 | 0.00 | 0.00 | 54 | 1014.1 |
| 20260508012046 | 46 | 310 | 0.0 | 0.0 | 0.00 | 0.00 | 0.00 | 54 | 1014.0 |
| 20260508011544 | 46 | 310 | 0.0 | 0.0 | 0.00 | 0.00 | 0.00 | 54 | 1014.0 |
| 20260508011041 | 46 | 310 | 0.0 | 0.0 | 0.00 | 0.00 | 0.00 | 53 | 1014.1 |
| 20260508010538 | 47 | 309 | 0.0 | 0.0 | 0.00 | 0.00 | 0.00 | 50 | 1014.0 |
| 20260508010035 | 48 | 310 | 0.0 | 0.0 | 0.00 | 0.00 | 0.00 | 49 | 1014.0 |
| 20260508005532 | 48 | 310 | 0.0 | 0.0 | 0.00 | 0.00 | 0.00 | 47 | 1013.9 |
| 20260508005028 | 49 | 309 | 0.0 | 0.0 | 0.00 | 0.00 | 0.00 | 44 | 1013.8 |
| 20260508004524 | 50 | 309 | 0.0 | 1.0 | 0.00 | 0.00 | 0.00 | 43 | 1013.7 |
| 20260508004021 | 50 | 309 | 0.0 | 1.0 | 0.00 | 0.00 | 0.00 | 43 | 1013.9 |
| 20260508003518 | 51 | 309 | 0.0 | 1.0 | 0.00 | 0.00 | 0.00 | 43 | 1013.7 |
| 20260508003015 | 51 | 319 | 3.0 | 3.0 | 0.00 | 0.00 | 0.00 | 40 | 1013.7 |
| 20260508002511 | 51 | 345 | 4.0 | 5.0 | 0.00 | 0.00 | 0.00 | 40 | 1013.5 |
| 20260508002009 | 51 | 357 | 3.0 | 5.0 | 0.00 | 0.00 | 0.00 | 39 | 1013.5 |
| 20260508001504 | 52 | 352 | 2.0 | 4.0 | 0.00 | 0.00 | 0.00 | 39 | 1013.5 |
| 20260508001001 | 52 | 355 | 2.0 | 3.0 | 0.00 | 0.00 | 0.00 | 39 | 1013.5 |
| 20260508000457 | 52 | 341 | 3.0 | 4.0 | 0.00 | 0.00 | 0.00 | 37 | 1013.4 |
| 20260507235954 | 52 | 285 | 5.0 | 5.0 | 0.00 | 0.00 | 0.00 | 38 | 1013.2 |
| 20260507235450 | 53 | 332 | 1.0 | 7.0 | 0.00 | 0.00 | 0.00 | 38 | 1013.3 |
| 20260507234948 | 53 | 331 | 6.0 | 11.0 | 0.00 | 0.00 | 0.00 | 37 | 1013.1 |
| 20260507234444 | 53 | 344 | 2.0 | 8.0 | 0.00 | 0.00 | 0.00 | 37 | 1013.1 |
| 20260507233941 | 53 | 313 | 5.0 | 5.0 | 0.00 | 0.00 | 0.00 | 37 | 1013.1 |
| 20260507233438 | 53 | 295 | 5.0 | 7.0 | 0.00 | 0.00 | 0.00 | 36 | 1012.9 |
| 20260507232937 | 54 | 306 | 6.0 | 12.0 | 0.00 | 0.00 | 0.00 | 36 | 1013.0 |
| 20260507232432 | 54 | 307 | 3.0 | 7.0 | 0.00 | 0.00 | 0.00 | 38 | 1013.1 |
| 20260507231930 | 54 | 357 | 2.0 | 4.0 | 0.00 | 0.00 | 0.00 | 39 | 1013.0 |
| 20260507231426 | 54 | 300 | 4.0 | 10.0 | 0.00 | 0.00 | 0.00 | 37 | 1013.2 |
| 20260507230923 | 55 | 279 | 3.0 | 4.0 | 0.00 | 0.00 | 0.00 | 36 | 1013.2 |
| 20260507230420 | 55 | 267 | 4.0 | 4.0 | 0.00 | 0.00 | 0.00 | 37 | 1013.1 |
| 20260507225920 | 55 | 307 | 2.0 | 5.0 | 0.00 | 0.00 | 0.00 | 37 | 1012.9 |
| 20260507225417 | 55 | 249 | 7.0 | 7.0 | 0.00 | 0.00 | 0.00 | 40 | 1013.1 |
| 20260507224913 | 55 | 14 | 4.0 | 5.0 | 0.00 | 0.00 | 0.00 | 40 | 1012.9 |
| 20260507224409 | 54 | 256 | 3.0 | 5.0 | 0.00 | 0.00 | 0.00 | 42 | 1013.1 |
| 20260507223906 | 54 | 343 | 10.0 | 11.0 | 0.00 | 0.00 | 0.00 | 41 | 1013.3 |
| 20260507223402 | 54 | 335 | 5.0 | 14.0 | 0.00 | 0.00 | 0.00 | 42 | 1013.3 |
| 20260507222859 | 54 | 326 | 5.0 | 12.0 | 0.00 | 0.00 | 0.00 | 43 | 1013.3 |
| 20260507222356 | 54 | 275 | 5.0 | 18.0 | 0.00 | 0.00 | 0.00 | 44 | 1013.1 |
| 20260507221853 | 54 | 342 | 9.0 | 14.0 | 0.00 | 0.00 | 0.00 | 42 | 1013.0 |
| 20260507221349 | 54 | 292 | 6.0 | 12.0 | 0.00 | 0.00 | 0.00 | 44 | 1013.3 |
| 20260507220845 | 54 | 313 | 2.0 | 7.0 | 0.00 | 0.00 | 0.00 | 47 | 1013.0 |
| 20260507220344 | 54 | 331 | 5.0 | 19.0 | 0.00 | 0.00 | 0.00 | 47 | 1013.1 |
| 20260507215839 | 54 | 331 | 4.0 | 8.0 | 0.00 | 0.00 | 0.00 | 47 | 1012.9 |
| 20260507215336 | 55 | 315 | 6.0 | 12.0 | 0.00 | 0.00 | 0.00 | 45 | 1012.8 |
| 20260507214833 | 56 | 329 | 5.0 | 11.0 | 0.00 | 0.00 | 0.00 | 43 | 1012.5 |
| 20260507214331 | 56 | 344 | 4.0 | 12.0 | 0.00 | 0.00 | 0.00 | 41 | 1012.6 |
| 20260507213826 | 55 | 7 | 8.0 | 11.0 | 0.00 | 0.00 | 0.00 | 35 | 1012.6 |
| 20260507213323 | 56 | 273 | 11.0 | 16.0 | 0.00 | 0.00 | 0.00 | 37 | 1012.6 |
| 20260507212820 | 56 | 318 | 3.0 | 8.0 | 0.00 | 0.00 | 0.00 | 40 | 1012.5 |
| 20260507212316 | 55 | 326 | 4.0 | 5.0 | 0.00 | 0.00 | 0.00 | 41 | 1012.4 |
| 20260507211812 | 55 | 325 | 10.0 | 11.0 | 0.00 | 0.00 | 0.00 | 39 | 1012.4 |
| 20260507211309 | 56 | 325 | 7.0 | 10.0 | 0.00 | 0.00 | 0.00 | 38 | 1012.4 |
| 20260507210806 | 55 | 273 | 5.0 | 10.0 | 0.00 | 0.00 | 0.00 | 38 | 1012.3 |
| 20260507210303 | 56 | 273 | 9.0 | 15.0 | 0.00 | 0.00 | 0.00 | 38 | 1012.0 |
| 20260507205759 | 58 | 321 | 5.0 | 12.0 | 0.00 | 0.00 | 0.00 | 37 | 1012.2 |
| 20260507205257 | 59 | 321 | 3.0 | 10.0 | 0.00 | 0.00 | 0.00 | 37 | 1012.0 |
| 20260507204752 | 59 | 336 | 3.0 | 5.0 | 0.00 | 0.00 | 0.00 | 34 | 1012.0 |
| 20260507204250 | 57 | 257 | 8.0 | 14.0 | 0.00 | 0.00 | 0.00 | 36 | 1012.1 |
| 20260507203748 | 56 | 265 | 7.0 | 10.0 | 0.00 | 0.00 | 0.00 | 37 | 1011.8 |
| 20260507203245 | 56 | 284 | 4.0 | 10.0 | 0.00 | 0.00 | 0.00 | 41 | 1012.0 |
| 20260507202741 | 56 | 292 | 4.0 | 7.0 | 0.00 | 0.00 | 0.00 | 38 | 1012.0 |
| 20260507202237 | 56 | 309 | 2.0 | 10.0 | 0.00 | 0.00 | 0.00 | 40 | 1012.1 |
| 20260507201732 | 57 | 324 | 6.0 | 15.0 | 0.00 | 0.00 | 0.00 | 37 | 1012.0 |
| 20260507201230 | 58 | 300 | 4.0 | 7.0 | 0.00 | 0.00 | 0.00 | 36 | 1012.0 |
| 20260507200726 | 59 | 358 | 4.0 | 10.0 | 0.00 | 0.00 | 0.00 | 36 | 1011.9 |
| 20260507200222 | 60 | 336 | 4.0 | 5.0 | 0.00 | 0.00 | 0.00 | 35 | 1012.1 |
| 20260507195718 | 61 | 239 | 4.0 | 8.0 | 0.00 | 0.00 | 0.00 | 32 | 1011.9 |
| 20260507195216 | 60 | 301 | 7.0 | 15.0 | 0.00 | 0.00 | 0.00 | 34 | 1012.0 |
| 20260507194713 | 60 | 285 | 3.0 | 8.0 | 0.00 | 0.00 | 0.00 | 38 | 1012.1 |
| 20260507194209 | 59 | 327 | 4.0 | 16.0 | 0.00 | 0.00 | 0.00 | 38 | 1012.3 |
| 20260507193706 | 60 | 261 | 12.0 | 15.0 | 0.00 | 0.00 | 0.00 | 34 | 1012.3 |
| 20260507193202 | 59 | 245 | 5.0 | 7.0 | 0.00 | 0.00 | 0.00 | 36 | 1012.2 |
| 20260507192658 | 59 | 294 | 4.0 | 14.0 | 0.00 | 0.00 | 0.00 | 37 | 1012.3 |
| 20260507192156 | 58 | 220 | 7.0 | 16.0 | 0.00 | 0.00 | 0.00 | 36 | 1012.3 |
| 20260507191651 | 58 | 254 | 4.0 | 11.0 | 0.00 | 0.00 | 0.00 | 35 | 1012.2 |
| 20260507191148 | 58 | 283 | 8.0 | 15.0 | 0.00 | 0.00 | 0.00 | 37 | 1012.4 |
| 20260507190645 | 56 | 294 | 5.0 | 7.0 | 0.00 | 0.00 | 0.00 | 39 | 1012.3 |
| 20260507190144 | 56 | 261 | 7.0 | 12.0 | 0.00 | 0.00 | 0.00 | 37 | 1012.4 |
| 20260507185642 | 56 | 249 | 10.0 | 12.0 | 0.00 | 0.00 | 0.00 | 36 | 1012.4 |
| 20260507185138 | 57 | 268 | 5.0 | 16.0 | 0.00 | 0.00 | 0.00 | 35 | 1012.5 |
| 20260507184636 | 58 | 258 | 5.0 | 11.0 | 0.00 | 0.00 | 0.00 | 36 | 1012.3 |
| 20260507184134 | 59 | 235 | 5.0 | 5.0 | 0.00 | 0.00 | 0.00 | 37 | 1012.3 |
| 20260507183630 | 57 | 0 | 5.0 | 14.0 | 0.00 | 0.00 | 0.00 | 37 | 1012.3 |
| 20260507183127 | 56 | 292 | 4.0 | 5.0 | 0.00 | 0.00 | 0.00 | 37 | 1012.5 |
| 20260507182624 | 56 | 339 | 3.0 | 12.0 | 0.00 | 0.00 | 0.00 | 37 | 1012.5 |
| 20260507182120 | 57 | 296 | 4.0 | 8.0 | 0.00 | 0.00 | 0.00 | 35 | 1012.4 |
| 20260507181616 | 57 | 331 | 3.0 | 5.0 | 0.00 | 0.00 | 0.00 | 40 | 1012.7 |
| 20260507181113 | 56 | 323 | 3.0 | 10.0 | 0.00 | 0.00 | 0.00 | 38 | 1012.6 |
| 20260507180609 | 56 | 292 | 5.0 | 15.0 | 0.00 | 0.00 | 0.00 | 38 | 1012.4 |
| 20260507180107 | 57 | 265 | 4.0 | 15.0 | 0.00 | 0.00 | 0.00 | 37 | 1012.4 |
| 20260507175602 | 56 | 318 | 4.0 | 8.0 | 0.00 | 0.00 | 0.00 | 36 | 1012.5 |
| 20260507175100 | 57 | 244 | 5.0 | 8.0 | 0.00 | 0.00 | 0.00 | 36 | 1012.7 |
| 20260507174557 | 57 | 282 | 3.0 | 8.0 | 0.00 | 0.00 | 0.00 | 39 | 1012.6 |
| 20260507174055 | 58 | 284 | 4.0 | 5.0 | 0.00 | 0.00 | 0.00 | 35 | 1012.4 |
| 20260507173551 | 58 | 277 | 1.0 | 4.0 | 0.00 | 0.00 | 0.00 | 38 | 1012.6 |
| 20260507173049 | 57 | 262 | 5.0 | 8.0 | 0.00 | 0.00 | 0.00 | 37 | 1012.6 |
| 20260507172544 | 58 | 275 | 6.0 | 8.0 | 0.00 | 0.00 | 0.00 | 36 | 1012.6 |
| 20260507172042 | 56 | 213 | 2.0 | 8.0 | 0.00 | 0.00 | 0.00 | 39 | 1012.6 |
| 20260507171536 | 55 | 341 | 3.0 | 4.0 | 0.00 | 0.00 | 0.00 | 36 | 1012.8 |
| 20260507171034 | 56 | 15 | 3.0 | 8.0 | 0.00 | 0.00 | 0.00 | 39 | 1012.7 |
| 20260507170531 | 57 | 291 | 4.0 | 8.0 | 0.00 | 0.00 | 0.00 | 39 | 1012.9 |
| 20260507170028 | 56 | 294 | 4.0 | 7.0 | 0.00 | 0.00 | 0.00 | 39 | 1012.8 |
| 20260507165523 | 57 | 266 | 5.0 | 12.0 | 0.00 | 0.00 | 0.00 | 39 | 1012.9 |
| 20260507165020 | 57 | 295 | 4.0 | 7.0 | 0.00 | 0.00 | 0.00 | 37 | 1012.9 |
| 20260507164516 | 56 | 280 | 2.0 | 7.0 | 0.00 | 0.00 | 0.00 | 41 | 1012.8 |
| 20260507164014 | 57 | 305 | 3.0 | 12.0 | 0.00 | 0.00 | 0.00 | 39 | 1013.0 |
| 20260507163510 | 57 | 8 | 2.0 | 10.0 | 0.00 | 0.00 | 0.00 | 40 | 1012.9 |
| 20260507163009 | 57 | 301 | 1.0 | 4.0 | 0.00 | 0.00 | 0.00 | 36 | 1012.9 |
| 20260507162503 | 56 | 292 | 2.0 | 5.0 | 0.00 | 0.00 | 0.00 | 38 | 1013.1 |
| 20260507162000 | 56 | 289 | 1.0 | 4.0 | 0.00 | 0.00 | 0.00 | 38 | 1012.8 |
| 20260507161456 | 56 | 289 | 4.0 | 14.0 | 0.00 | 0.00 | 0.00 | 42 | 1013.1 |
| 20260507160954 | 56 | 245 | 7.0 | 11.0 | 0.00 | 0.00 | 0.00 | 38 | 1012.8 |
| 20260507160449 | 55 | 226 | 6.0 | 8.0 | 0.00 | 0.00 | 0.00 | 42 | 1013.0 |
| 20260507155945 | 56 | 212 | 4.0 | 7.0 | 0.00 | 0.00 | 0.00 | 39 | 1013.1 |
| 20260507155441 | 55 | 249 | 3.0 | 5.0 | 0.00 | 0.00 | 0.00 | 39 | 1013.1 |
| 20260507154939 | 55 | 217 | 4.0 | 5.0 | 0.00 | 0.00 | 0.00 | 41 | 1013.0 |
| 20260507154435 | 56 | 249 | 9.0 | 12.0 | 0.00 | 0.00 | 0.00 | 41 | 1013.2 |
| 20260507153932 | 56 | 273 | 7.0 | 10.0 | 0.00 | 0.00 | 0.00 | 38 | 1013.2 |
| 20260507153429 | 57 | 270 | 7.0 | 10.0 | 0.00 | 0.00 | 0.00 | 38 | 1013.3 |
| 20260507152925 | 58 | 306 | 4.0 | 7.0 | 0.00 | 0.00 | 0.00 | 36 | 1013.2 |
| 20260507152422 | 57 | 320 | 4.0 | 5.0 | 0.00 | 0.00 | 0.00 | 41 | 1013.2 |
| 20260507151917 | 56 | 89 | 2.0 | 8.0 | 0.00 | 0.00 | 0.00 | 42 | 1013.2 |
| 20260507151414 | 56 | 332 | 4.0 | 4.0 | 0.00 | 0.00 | 0.00 | 42 | 1013.3 |
| 20260507150911 | 55 | 213 | 1.0 | 4.0 | 0.00 | 0.00 | 0.00 | 46 | 1013.3 |
| 20260507150408 | 54 | 334 | 3.0 | 3.0 | 0.00 | 0.00 | 0.00 | 46 | 1013.3 |
| 20260507145905 | 54 | 298 | 1.0 | 5.0 | 0.00 | 0.00 | 0.00 | 50 | 1013.2 |
| 20260507145400 | 54 | 288 | 5.0 | 7.0 | 0.00 | 0.00 | 0.00 | 45 | 1013.2 |
| 20260507144858 | 54 | 276 | 3.0 | 12.0 | 0.00 | 0.00 | 0.00 | 50 | 1013.3 |
| 20260507144355 | 55 | 253 | 6.0 | 10.0 | 0.00 | 0.00 | 0.00 | 48 | 1013.3 |
| 20260507143851 | 55 | 252 | 8.0 | 10.0 | 0.00 | 0.00 | 0.00 | 48 | 1013.7 |
| 20260507143349 | 55 | 345 | 2.0 | 5.0 | 0.00 | 0.00 | 0.00 | 51 | 1013.4 |
| 20260507142845 | 53 | 268 | 2.0 | 4.0 | 0.00 | 0.00 | 0.00 | 51 | 1013.4 |
| 20260507142341 | 54 | 255 | 7.0 | 10.0 | 0.00 | 0.00 | 0.00 | 52 | 1013.5 |
| 20260507141838 | 53 | 279 | 2.0 | 4.0 | 0.00 | 0.00 | 0.00 | 53 | 1013.7 |
| 20260507141335 | 53 | 231 | 5.0 | 7.0 | 0.00 | 0.00 | 0.00 | 56 | 1013.7 |